DW2182 Weather Reports


Display with metric or nautical units.
time (UTC)temp
F
wind
direction
speed
MPH
gust
MPH
rain 1hr
in
rain 24hr
in
rain mn
in
humidity
%
barometer
mb
20260505210516 55 135 5.0 9.0 0.00 0.00 0.00 32 1010.6
20260505205516 55 135 7.0 11.0 0.00 0.00 0.00 33 1010.7
20260505204516 55 135 7.0 12.0 0.00 0.00 0.00 32 1010.8
20260505203516 55 135 7.0 15.0 0.00 0.00 0.00 33 1010.9
20260505202536 56 135 7.0 12.0 0.00 0.00 0.00 33 1011.0
20260505201516 56 135 7.0 14.0 0.00 0.00 0.00 32 1011.0
20260505200516 54 135 5.0 12.0 0.00 0.00 0.00 34 1011.0
20260505195537 54 135 6.0 10.0 0.00 0.00 0.00 34 1011.2
20260505194516 54 135 5.0 12.0 0.00 0.00 0.00 33 1011.3
20260505193516 55 135 7.0 14.0 0.00 0.00 0.00 32 1011.3
20260505192537 53 135 3.0 8.0 0.00 0.00 0.00 37 1011.2
20260505191516 53 135 8.0 14.0 0.00 0.00 0.00 36 1011.3
20260505190516 53 135 3.0 8.0 0.00 0.00 0.00 37 1011.3
20260505185516 53 135 7.0 12.0 0.00 0.00 0.00 35 1011.4
20260505184516 54 135 7.0 11.0 0.00 0.00 0.00 36 1011.3
20260505183516 54 135 5.0 9.0 0.00 0.00 0.00 37 1011.4
20260505182517 53 135 5.0 9.0 0.00 0.00 0.00 37 1011.3
20260505181517 53 0 6.0 11.0 0.00 0.00 0.00 35 1011.3
20260505180537 52 135 5.0 10.0 0.00 0.00 0.00 39 1011.2
20260505175517 53 135 8.0 15.0 0.00 0.00 0.00 37 1011.3
20260505174516 53 135 7.0 11.0 0.00 0.00 0.00 38 1011.3
20260505173517 53 135 7.0 12.0 0.00 0.00 0.00 36 1011.3
20260505172516 55 135 7.0 12.0 0.00 0.00 0.00 35 1011.3
20260505171516 54 135 6.0 13.0 0.00 0.00 0.00 37 1011.1
20260505170516 54 135 6.0 10.0 0.00 0.00 0.00 35 1011.1
20260505165516 54 135 7.0 11.0 0.00 0.00 0.00 39 1011.1
20260505164516 51 135 6.0 12.0 0.00 0.00 0.00 40 1011.1
20260505163516 51 135 6.0 16.0 0.00 0.00 0.00 39 1011.2
20260505162516 52 135 6.0 12.0 0.00 0.00 0.00 38 1011.1
20260505161517 53 135 5.0 10.0 0.00 0.00 0.00 41 1011.2
20260505160516 51 135 6.0 13.0 0.00 0.00 0.00 43 1011.2
20260505152536 50 135 4.0 9.0 0.00 0.00 0.00 51 1011.2
20260505151516 48 135 3.0 9.0 0.00 0.00 0.00 52 1011.2
20260505150516 48 158 3.0 11.0 0.00 0.00 0.00 50 1011.1
20260505140517 46 135 2.0 7.0 0.00 0.00 0.00 54 1010.6
20260505124516 41 135 1.0 3.0 0.00 0.00 0.00 66 1010.0
20260505123515 40 135 1.0 3.0 0.00 0.00 0.00 69 1009.8
20260505122516 39 135 2.0 3.0 0.00 0.00 0.00 70 1009.8
20260505121516 38 135 2.0 3.0 0.00 0.00 0.00 72 1009.5
20260505120516 37 135 1.0 3.0 0.00 0.00 0.00 73 1009.4
20260505115516 36 135 1.0 2.0 0.00 0.00 0.00 73 1009.2
20260505114515 36 0.0 2.0 0.00 0.00 0.00 73 1008.9
20260505113516 36 0.0 1.0 0.00 0.00 0.00 72 1008.6
20260505112516 36 0.0 0.0 0.00 0.00 0.00 71 1008.6
20260505111516 36 0.0 0.0 0.00 0.00 0.00 71 1008.6
20260505110516 36 0.0 2.0 0.00 0.00 0.00 71 1008.4
20260505101516 37 135 1.0 2.0 0.00 0.00 0.00 70 1008.1
20260505100516 37 135 1.0 2.0 0.00 0.00 0.00 70 1008.3
20260505095515 37 135 1.0 3.0 0.00 0.00 0.00 69 1008.4
20260505094515 37 0.0 0.0 0.00 0.00 0.00 69 1008.4
20260505093515 37 0.0 0.0 0.00 0.00 0.00 68 1008.3
20260505092516 37 0.0 2.0 0.00 0.00 0.00 68 1008.0
20260505091516 38 0.0 0.0 0.00 0.00 0.00 68 1007.9
20260505090515 38 0.0 0.0 0.00 0.00 0.00 68 1007.8
20260505085515 38 0.0 0.0 0.00 0.00 0.00 67 1007.8
20260505084516 38 0.0 0.0 0.00 0.00 0.00 66 1007.8
20260505083516 39 0.0 0.0 0.00 0.00 0.00 65 1007.8
20260505082538 39 0.0 0.0 0.00 0.00 0.00 64 1007.7
20260505081517 39 0.0 0.0 0.00 0.00 0.00 64 1007.6
20260505080517 40 0.0 0.0 0.00 0.00 0.00 63 1007.4
20260505075517 40 135 1.0 2.0 0.00 0.00 0.00 63 1007.4
20260505074515 40 135 1.0 2.0 0.00 0.00 0.00 62 1007.4
20260505073517 40 135 1.0 2.0 0.00 0.00 0.00 61 1007.3
20260505072517 41 0.0 2.0 0.00 0.00 0.00 61 1007.4
20260505071517 41 0.0 2.0 0.00 0.00 0.00 61 1007.4
20260505070518 41 0.0 0.0 0.00 0.00 0.00 60 1007.3
20260505065517 41 0.0 0.0 0.00 0.00 0.00 60 1007.5
20260505064537 41 0.0 0.0 0.00 0.00 0.00 59 1007.6
20260505063518 42 0.0 0.0 0.00 0.00 0.00 58 1007.6
20260505062517 42 0.0 0.0 0.00 0.00 0.00 58 1007.7
20260505061517 42 0.0 0.0 0.00 0.00 0.00 58 1007.5
20260505060537 42 0.0 0.0 0.00 0.00 0.00 57 1007.6
20260505055517 43 0.0 0.0 0.00 0.00 0.00 56 1007.5
20260505054518 43 0.0 0.0 0.00 0.00 0.00 56 1007.4
20260505053538 43 0.0 0.0 0.00 0.00 0.00 55 1007.5
20260505052518 44 0.0 0.0 0.00 0.00 0.00 55 1007.4
20260505051517 44 0.0 2.0 0.00 0.00 0.00 54 1007.4
20260505050517 44 0.0 0.0 0.00 0.00 0.00 54 1007.4
20260505041518 46 0.0 0.0 0.00 0.00 0.00 49 1007.2
20260505040518 46 0.0 1.0 0.00 0.00 0.00 48 1007.1
20260505035518 46 0.0 1.0 0.00 0.00 0.00 47 1007.1
20260505034518 47 0.0 2.0 0.00 0.00 0.00 47 1007.1
20260505033517 47 0.0 2.0 0.00 0.00 0.00 46 1007.1
20260505032517 48 135 2.0 5.0 0.00 0.00 0.00 45 1007.2
20260505031517 48 135 2.0 3.0 0.00 0.00 0.00 45 1007.2
20260505030517 48 158 2.0 5.0 0.00 0.00 0.00 44 1007.0
20260505025517 49 135 2.0 3.0 0.00 0.00 0.00 44 1007.0
20260505024517 49 135 2.0 4.0 0.00 0.00 0.00 43 1007.0
20260505023517 49 135 2.0 5.0 0.00 0.00 0.00 43 1006.9
20260505022537 50 135 3.0 5.0 0.00 0.00 0.00 42 1006.7
20260505021557 50 158 3.0 5.0 0.00 0.00 0.00 42 1006.6
20260505020517 51 135 3.0 7.0 0.00 0.00 0.00 41 1006.4
20260505015517 51 158 4.0 9.0 0.00 0.00 0.00 41 1006.4
20260505014517 52 158 6.0 10.0 0.00 0.00 0.00 41 1006.2
20260505013517 52 135 4.0 9.0 0.00 0.00 0.00 39 1005.9
20260505012517 52 135 5.0 11.0 0.00 0.00 0.00 38 1005.9
20260505011517 53 135 6.0 14.0 0.00 0.00 0.00 38 1005.8
20260505010517 53 158 8.0 15.0 0.00 0.00 0.00 37 1005.6
20260505005517 54 135 7.0 12.0 0.00 0.00 0.00 37 1005.3
20260505004517 54 135 9.0 18.0 0.00 0.00 0.00 37 1005.2
20260505003517 54 135 7.0 15.0 0.00 0.00 0.00 37 1005.0
20260505002517 55 135 7.0 15.0 0.00 0.00 0.00 37 1004.9
20260505001517 55 135 7.0 12.0 0.00 0.00 0.00 38 1004.8
20260505000517 55 158 9.0 17.0 0.00 0.00 0.00 37 1004.6
20260504235517 56 135 8.0 17.0 0.00 0.00 0.00 38 1004.7
20260504234517 56 135 7.0 14.0 0.00 0.00 0.00 39 1004.5
20260504233537 56 135 9.0 15.0 0.00 0.00 0.00 38 1004.5
20260504232537 57 135 10.0 21.0 0.00 0.00 0.00 38 1004.3
20260504231517 57 135 10.0 17.0 0.00 0.00 0.00 38 1004.2
20260504230537 58 135 12.0 20.0 0.00 0.00 0.00 38 1004.2
20260504225517 58 135 8.0 14.0 0.00 0.00 0.00 38 1004.0
20260504224518 59 135 12.0 20.0 0.00 0.00 0.00 39 1003.7
20260504223517 60 135 12.0 19.0 0.00 0.00 0.00 38 1003.7
20260504222517 61 135 11.0 21.0 0.00 0.00 0.00 37 1003.4
20260504221517 61 135 11.0 21.0 0.00 0.00 0.00 37 1003.2
20260504220518 62 135 8.0 16.0 0.00 0.00 0.00 36 1002.9
20260504215517 63 135 11.0 27.0 0.00 0.00 0.00 35 1002.8
20260504214517 63 135 11.0 19.0 0.00 0.00 0.00 35 1002.6
20260504213517 64 135 11.0 20.0 0.00 0.00 0.00 34 1002.6
20260504212518 63 135 10.0 18.0 0.00 0.00 0.00 35 1002.4
20260504211517 63 135 11.0 21.0 0.00 0.00 0.00 35 1002.3